Погода в Новостройке

Россия / Приморский край     46°11′02″N   133°56′02″E
темп.,
°C
ветер,
м/с
пор.,
м/с
влажн.,
%
обл.,
%
осадки,
мм/ч
давл.,
гПа
погр.,
м
15 апреля, чт
чт1501:00−1зюз22475 0.0 101023
04:00−2зюз225468 0.0 101214
07:00−2ююз22462 0.0 101421
10:00+5зюз35315 0.0 10141026
13:00+9зюз46255 0.0 10131935
16:00+11юз572310 0.0 10122406
19:00+11юз242611 0.0 1013160
22:00+7ююв323556 0.0 101427
16 апреля, пт
пт1601:00+5юв2247100 0.0 101424
04:00+5юв3550100 0.0 1014106
07:00+5вюв2350100 0.0 101482
10:00+12ю5112872 0.0 10131124
13:00+15ю81029100 0.0 10122079
16:00+16ююв81028100 0.0 10092717
19:00+10ююв8114198 0.0 1010817
22:00+8юв71350100 0.0 10101009
17 апреля, сб
сб1701:00+6юв5126996 0.2 1008742
04:00+6ююз3889100 3.8 10071150
07:00+7ююз4127999 3.3 1009582
10:00+11юз58512 3.3 1011921
13:00+14юз6928100 0.0 10113091
16:00+15юз582576 0.0 10102614
19:00+13зюз35314 0.0 1010214
22:00+11ююв113887 0.0 101110
18 апреля, вс
вс1801:00+8св2245100 0.0 101026
04:00+6ссв365886 0.0 1009113
07:00+5ссв38695 0.0 1009177
10:00+11ссв69495 0.0 1009647
13:00+16с793210 0.0 10061760
16:00+17с89287 0.0 10042197
19:00+15с710322 0.0 10041471
22:00+11с6134438 0.0 1005627
19 апреля, пн
пн1901:00+9с5115494 0.0 1005379
04:00+8ссз496311 0.0 1005258
07:00+7ссз51367100 0.0 1006475
10:00+11с7105098 0.0 10061131
13:00+15с911325 0.0 10041997
16:00+17с811250 0.0 10032332
19:00+14ссв610340 0.0 10041515
22:00+9св11510 0.0 100611